Regional Weather Roundup
Issued by NWS

Home | Current Version | Previous Version | Text Only | Print | Product List | Glossary Off
Versions: 1 2 3 4 5 6 7 8 9 10 11 12 13 14 15 16 17 18 19 20 21 22 23 24 25 26 27

000
ASUS45 KCYS 231810
RWRWY

WYOMING REGIONAL WEATHER ROUNDUP
NATIONAL WEATHER SERVICE CHEYENNE WY
1100 AM MST THU NOV 23 2017

NOTE:  "FAIR" INDICATES FEW OR NO CLOUDS BELOW 12,000 FEET
WITH NO SIGNIFICANT WEATHER AND/OR OBSTRUCTIONS TO VISIBILITY.

WYZ001-231900-
YELLOWSTONE NATIONAL PARK

CITY           SKY/WX    TMP DP  RH WIND       PRES   REMARKS
LK YELLOWSTONE   N/A     46  37  71 VRB3      30.21F
6HR MIN TEMP:  32; 6HR MAX TEMP:  46;

W YELLOWSTONE  NOT AVBL

$$
WYZ002>013-054>058-071-098>099-231900-
NORTHERN WYOMING

CITY           SKY/WX    TMP DP  RH WIND       PRES   REMARKS
JACKSON        CLOUDY    52  40  63 SW15      30.20F
CODY           FAIR      62  33  33 SW15G26   29.99F
GREYBULL       FAIR      40  36  86 SE6       29.98F
6HR MIN TEMP:  28; 6HR MAX TEMP:  40;

WORLAND        FAIR      41  37  86 VRB3      29.99F
6HR MIN TEMP:  30; 6HR MAX TEMP:  41;

SHERIDAN       FAIR      57  42  57 N6        29.90S
6HR MIN TEMP:  42; 6HR MAX TEMP:  58;

BUFFALO        FAIR      54  31  41 CALM      29.95F
6HR MIN TEMP:  47; 6HR MAX TEMP:  58;

GILLETTE       FAIR      62  35  36 SW20G28   29.90F
6HR MIN TEMP:  50; 6HR MAX TEMP:  62;

HULETT         FAIR      61  36  39 SW12G23   29.92F
NEWCASTLE      FAIR      55  34  44 S6        30.00F

$$
WYZ014>020-022>026-101>103-231900-
CENTRAL WYOMING

CITY           SKY/WX    TMP DP  RH WIND       PRES   REMARKS
BIG PINEY      FAIR      38  35  89 CALM      30.27F
6HR MIN TEMP:  20; 6HR MAX TEMP:  38;

PINEDALE       FAIR      37  37 100 CALM      30.28F
DUBOIS         FAIR      52  32  46 W26       30.15F
LANDER         FAIR      50  36  58 W8        30.10R
6HR MIN TEMP:  36; 6HR MAX TEMP:  50;

RIVERTON       FAIR      48  35  60 CALM      30.09F
6HR MIN TEMP:  40; 6HR MAX TEMP:  49;

CASPER         FAIR      55  37  50 SW30G36   30.07F
6HR MIN TEMP:  44; 6HR MAX TEMP:  55;

DOUGLAS        FAIR      64  36  35 W18G29    30.04F
6HR MIN TEMP:  32; 6HR MAX TEMP:  66;


$$
WYZ021-027>030-104>119-231900-
SOUTHERN WYOMING

CITY           SKY/WX    TMP DP  RH WIND       PRES   REMARKS
EVANSTON       FAIR      49  38  65 SW14      30.32F
6HR MIN TEMP:  39; 6HR MAX TEMP:  50;

KEMMERER       FAIR      46  36  66 SW10      30.30F
FORT BRIDGER   FAIR      55  36  50 W14       30.33F
ROCK SPRINGS   FAIR      52  35  52 SW14      30.28F
6HR MIN TEMP:  39; 6HR MAX TEMP:  52;

DIXON          FAIR      53  37  53 SW20      30.33F
RAWLINS        LGT RAIN  53  37  54 SW22G32   30.24F
6HR MIN TEMP:  40; 6HR MAX TEMP:  53; 6HR PCP: TRACE;

SARATOGA       FAIR      55  34  44 MISG      30.27F
LARAMIE        FAIR      56  32  40 W17G29    30.21F
6HR MIN TEMP:  36; 6HR MAX TEMP:  56;

CHEYENNE       FAIR      58  32  37 W13       30.14F
6HR MIN TEMP:  41; 6HR MAX TEMP:  60;

TORRINGTON     FAIR      65  40  39 W18G26    30.02F
6HR MIN TEMP:  38; 6HR MAX TEMP:  65;

PINE BLUFFS    FAIR      63  32  31 W14G25    30.12F

$$




USA.gov is the U.S. government's official web portal to all federal, state and local government web resources and services.